Flag for Australia Weather past 2 weeks in Mackay, Queensland, Australia

Now
71 °F

Mild.


Feels Like: 74 °F
Forecast: 67 / 79 °F
Wind: 8 mph from Southeast

Location: Mackay Mo

Current Time: Oct 23, 2014 at 8:24:36 PM

Latest Report: Oct 23, 2014 at 7:00 PM


Visibility: N/A

Pressure: 30.09 "Hg

Humidity: 71%

Dew point: 61 °F

Location of MackayLocation

Historic Weather in Mackay — Graph

°F

Mackay temperature yesterday

Maximum temperature yesterday: 79 °F (at 1:00 PM)
Minimum temperature yesterday: 71 °F (at 3:00 AM)
Average temperature yesterday: 74 °F

Past Weeks' High & Low Weather Summary

 TemperatureHumidityPressure
High85 °F (Oct 14, 12:00 PM)97% (Oct 9, 4:00 AM)30.20 "Hg (Oct 9, 4:00 AM)
Low57 °F (Oct 16, 6:00 AM)18% (Oct 15, 9:00 AM)29.80 "Hg (Oct 14, 3:00 PM)
Average73 °F67%30.04 "Hg
* Reported Oct 8 7:00 PM — Oct 23 7:00 PM, Mackay, Weather by CustomWeather, © 2014

Note: Actual official high and low records may vary slightly from our data, if they occured in-between our weather recording intervals... More about our weather records

Advertising

Mackay weather history for previous 24 hours

 ConditionsComfort  
Time TempWeatherWind HumidityBarometerVisibility
7:00 PM
Oct 23
71 °FMild.8 mph71%30.09 "HgN/A
6:00 PM72 °FMild.7 mph67%30.07 "HgN/A
4:00 PM75 °FMild.8 mph61%30.04 "HgN/A
3:00 PM78 °FScattered clouds.10 mph57%30.05 "Hg16 mi
1:00 PM77 °FWarm.10 mph52%30.07 "HgN/A
12:00 PM78 °FScattered clouds.12 mph53%30.10 "Hg16 mi
10:00 AM77 °FWarm.12 mph58%30.13 "HgN/A
9:00 AM76 °FPassing clouds.13 mph61%30.13 "Hg12 mi
7:00 AM70 °FMild.10 mph81%30.11 "HgN/A
6:00 AM64 °FPassing clouds.9 mph90%30.10 "Hg16 mi
4:00 AM66 °FMild.8 mph86%30.08 "HgN/A
3:00 AM71 °FMild.8 mph74%30.08 "HgN/A
1:00 AM72 °FMild.10 mph72%30.12 "HgN/A
12:00 AM72 °FPassing clouds.9 mph67%30.14 "HgN/A
10:00 PM
Oct 22
72 °FMild.10 mph62%30.14 "HgN/A
9:00 PM72 °FMild.13 mph62%30.14 "HgN/A
Weather by CustomWeather, © 2014

See weather overviewHow to use our weather pages